1508374800.83,62030,14.0,73864.0,0.81,-31.01,-32.57,0,*43
1508374802.06,62031,14.06,73864.8,0.79,-31.17,-32.69,0,*4F
1508374803.33,62032,14.0,73862.8,0.79,-31.51,-32.97,0,*4F
1508374804.58,62033,14.0,73854.8,0.79,-31.79,-33.49,0,*46
1508374805.85,62034,14.0,73860.8,0.79,-31.91,-33.61,0,*4D
1508374807.11,62035,14.0,73870.3,0.79,-31.45,-32.97,0,*4D
1508374808.31,62036,14.0,73866.3,0.81,-31.45,-33.21,0,*45
1508374809.54,62037,14.0,73864.5,0.81,-31.61,-33.21,0,*42
1508374810.82,62038,14.0,73864.5,0.79,-31.85,-33.61,0,*44
1508374812.09,62039,14.0,73864.0,0.79,-31.91,-33.49,0,*4A
1508374813.35,62040,14.0,73868.3,0.81,-31.95,-33.61,0,*4D
1508374814.6,62041,14.06,73878.0,0.79,-32.01,-33.61,0,*45
1508374815.85,62042,14.0,73876.0,0.79,-32.01,-33.61,0,*46
1508374817.1,62043,14.0,73872.8,0.79,-31.67,-33.27,0,*46
1508374818.37,62044,14.0,73866.5,0.79,-31.91,-33.61,0,*4A
1508374819.65,62045,14.0,73868.5,0.79,-31.85,-33.49,0,*44
1508374820.93,62046,14.06,73868.3,0.79,-31.61,-33.31,0,*42
1508374822.18,62047,14.0,73868.3,0.79,-31.67,-33.31,0,*45
1508374823.44,62048,14.0,73866.3,0.79,-31.79,-33.31,0,*45
1508374824.72,62049,14.0,73868.8,0.79,-31.85,-33.31,0,*47
1508374825.97,62050,14.0,73872.8,0.79,-31.67,-33.31,0,*43
1508374827.18,62051,14.0,73864.8,0.73,-31.91,-33.67,0,*42
1508374828.43,62052,14.0,73870.0,0.77,-31.91,-33.49,0,*49
1508374829.68,62053,14.0,73868.3,0.77,-31.91,-33.61,0,*42
1508374830.92,62054,14.0,73870.8,0.77,-31.91,-33.49,0,*4F
1508374832.18,62055,14.0,73872.0,0.77,-31.91,-33.43,0,*44
1508374833.41,62056,14.06,73876.0,0.77,-31.79,-33.27,0,*43
1508374834.63,62057,14.0,73876.3,0.73,-31.85,-33.37,0,*44
1508374835.87,62058,14.0,73874.3,0.73,-31.73,-33.31,0,*44
1508374837.1,62059,14.0,73880.3,0.77,-31.79,-33.27,0,*4C
1508374838.32,62060,14.0,73872.8,0.77,-31.67,-33.27,0,*49
1508374839.55,62061,14.0,73876.0,0.77,-31.61,-33.15,0,*4F
1508374840.77,62062,14.0,73878.5,0.77,-31.67,-33.31,0,*4C
1508374841.98,62063,14.0,73874.3,0.77,-31.45,-32.91,0,*46
1508374843.2,62064,14.06,73872.5,0.77,-31.51,-32.91,0,*44
1508374844.43,62065,14.0,73868.8,0.77,-31.45,-32.97,0,*46
1508374845.66,62066,14.0,73870.8,0.77,-31.79,-33.27,0,*40
1508374846.88,62067,14.0,73866.8,0.77,-31.51,-33.15,0,*4A
1508374848.11,62068,14.0,73864.0,0.77,-31.67,-33.27,0,*41
1508374849.35,62069,14.0,73864.5,0.73,-31.73,-33.31,0,*46
1508374850.57,62070,14.0,73862.5,0.77,-32.01,-33.61,0,*49
1508374851.8,62071,14.0,73858.5,0.77,-31.67,-33.27,0,*49
1508374853.05,62072,14.0,73862.8,0.77,-31.85,-33.31,0,*41
1508374854.27,62073,14.0,73864.5,0.73,-31.91,-33.37,0,*47
1508374855.49,62074,14.0,73866.5,0.73,-31.85,-33.37,0,*45
1508374856.74,62075,14.0,73862.5,0.77,-31.91,-33.49,0,*4C
1508374857.98,62076,14.0,73860.8,0.77,-31.91,-33.49,0,*4F
1508374859.2,62077,14.0,73860.0,0.73,-31.95,-33.67,0,*42
1508374860.42,62078,14.0,73862.8,0.73,-32.07,-33.67,0,*45
1508374861.64,62079,14.0,73864.3,0.73,-32.07,-33.67,0,*44
1508374862.87,62080,14.0,73864.3,0.73,-31.85,-33.49,0,*47
1508374864.08,62081,14.0,73860.8,0.73,-31.67,-33.31,0,*45
1508374865.3,62082,14.06,73870.0,0.73,-31.57,-33.03,0,*44
1508374866.54,62083,14.0,73864.5,0.73,-31.85,-33.31,0,*4B
1508374867.78,62084,14.0,73870.8,0.73,-31.91,-33.49,0,*46
1508374869.0,62085,14.0,73862.8,0.77,-32.01,-33.61,0,*43
1508374870.21,62086,14.0,73862.8,0.73,-32.07,-33.55,0,*45
1508374871.44,62087,14.0,73866.8,0.77,-32.01,-33.49,0,*4B
1508374872.63,62088,14.0,73860.0,0.69,-32.01,-33.55,0,*46
1508374873.85,62089,14.0,73860.0,0.69,-31.95,-33.55,0,*49
1508374875.07,62090,14.0,73860.3,0.69,-32.01,-33.61,0,*48
1508374876.28,62091,14.0,73862.8,0.69,-32.13,-33.73,0,*49
1508374877.52,62092,14.0,73856.5,0.69,-32.19,-33.77,0,*44
1508374878.76,62093,14.0,73854.5,0.69,-31.91,-33.43,0,*41
1508374880.01,62094,14.0,73852.0,0.69,-31.73,-33.27,0,*48
1508374881.23,62095,14.0,73856.3,0.69,-31.95,-33.55,0,*44
1508374882.44,62096,14.0,73862.8,0.69,-31.91,-33.55,0,*43
1508374883.71,62097,14.0,73860.3,0.67,-32.19,-33.77,0,*4F
1508374884.95,62098,14.0,73858.5,0.67,-32.07,-33.67,0,*4E
1508374886.19,62099,14.0,73856.8,0.67,-32.19,-33.55,0,*41
1508374887.39,62100,14.0,73854.5,0.69,-32.01,-33.55,0,*47
1508374888.63,62101,14.0,73856.3,0.69,-31.95,-33.43,0,*4F
1508374889.88,62102,14.0,73856.0,0.69,-31.91,-33.43,0,*48
1508374891.1,62103,14.0,73862.0,0.69,-31.95,-33.37,0,*4E
1508374892.35,62104,14.0,73862.3,0.69,-31.91,-33.43,0,*4E
1508374893.61,62105,14.0,73866.0,0.67,-31.95,-33.49,0,*4F
1508374894.83,62106,14.0,73874.0,0.69,-31.95,-33.55,0,*4F
1508374896.04,62107,14.0,73874.5,0.67,-32.23,-33.95,0,*42
1508374897.25,62108,14.0,73872.3,0.67,-32.39,-33.95,0,*46
1508374898.46,62109,14.0,73860.3,0.67,-32.35,-33.83,0,*4C
1508374899.67,62110,14.0,73860.0,0.67,-32.23,-33.67,0,*49
1508374900.94,62111,14.0,73860.5,0.67,-32.07,-33.77,0,*4F
1508374902.17,62112,14.0,73858.5,0.67,-32.01,-33.67,0,*4B
1508374903.41,62113,14.0,73860.8,0.67,-31.79,-33.31,0,*45
1508374904.65,62114,14.0,73868.3,0.65,-31.85,-33.31,0,*43
1508374905.87,62115,14.0,73866.0,0.65,-31.79,-33.43,0,*44
1508374907.11,62116,14.0,73860.0,0.65,-31.85,-33.31,0,*41
1508374908.35,62117,14.0,73860.0,0.65,-31.51,-33.09,0,*42
1508374909.56,62118,14.0,73862.3,0.65,-31.61,-33.03,0,*44
1508374910.8,62119,14.0,73864.5,0.65,-31.85,-33.09,0,*45
1508374912.05,62120,14.0,73858.8,0.65,-31.61,-33.09,0,*45
1508374913.26,62121,14.0,73858.8,0.65,-31.67,-33.09,0,*42
1508374914.49,62122,14.0,73860.0,0.67,-31.67,-33.09,0,*43
1508374915.74,62123,14.0,73858.5,0.67,-31.61,-33.03,0,*4E
1508374916.99,62124,14.0,73856.0,0.67,-31.61,-32.91,0,*43
1508374918.23,62125,14.0,73858.5,0.67,-31.67,-33.09,0,*44
1508374919.47,62126,14.0,73858.0,0.67,-31.61,-33.03,0,*4B
1508374920.69,62127,14.0,73860.3,0.69,-31.61,-33.03,0,*44
1508374921.9,62128,14.06,73864.3,0.67,-31.67,-33.03,0,*43
1508374923.14,62129,14.0,73860.8,0.69,-31.61,-32.97,0,*46
1508374924.36,62130,14.0,73856.8,0.69,-31.79,-33.09,0,*41
1508374925.55,62131,14.0,73860.0,0.69,-32.13,-33.55,0,*46
1508374926.79,62132,14.0,73860.0,0.69,-31.91,-33.27,0,*49
1508374928.06,62133,14.0,73862.5,0.67,-31.85,-33.31,0,*44
1508374929.28,62134,14.0,73864.8,0.67,-31.79,-33.15,0,*46
1508374930.49,62135,14.0,73862.8,0.67,-31.67,-33.03,0,*4F
1508374931.71,62136,14.0,73856.0,0.67,-31.79,-33.15,0,*44
1508374932.93,62137,14.0,73860.5,0.69,-31.73,-33.03,0,*46
1508374934.17,62138,14.0,73856.3,0.67,-31.67,-33.09,0,*48
1508374935.38,62139,14.0,73856.3,0.67,-31.67,-32.91,0,*49
1508374936.57,62140,14.0,73862.8,0.69,-31.67,-33.03,0,*43
1508374937.81,62141,14.0,73862.5,0.67,-31.51,-32.91,0,*43
1508374939.02,62142,14.0,73862.3,0.67,-31.67,-33.03,0,*4F
1508374940.24,62143,14.0,73862.0,0.67,-31.67,-33.15,0,*49
1508374941.51,62144,14.0,73862.0,0.67,-31.61,-33.09,0,*45
1508374942.78,62145,14.0,73858.0,0.67,-31.61,-33.09,0,*44
1508374944.02,62146,14.0,73856.3,0.67,-31.67,-33.09,0,*41
1508374945.23,62147,14.0,73856.0,0.67,-31.79,-33.15,0,*42
1508374946.45,62148,14.0,73862.3,0.67,-31.67,-33.15,0,*42
1508374947.72,62149,14.0,73862.0,0.67,-31.61,-33.09,0,*48
1508374948.96,62150,14.0,73856.3,0.67,-31.67,-33.09,0,*46
1508374950.17,62151,14.0,73856.5,0.67,-31.67,-33.03,0,*4D
1508374951.42,62152,14.0,73858.5,0.67,-31.61,-33.03,0,*48
1508374952.66,62153,14.0,73850.3,0.67,-31.51,-32.91,0,*40
1508374953.88,62154,14.0,73848.8,0.69,-31.23,-32.69,0,*4B
1508374955.15,62155,14.0,73852.0,0.67,-31.51,-32.75,0,*4C
1508374956.35,62156,14.0,73858.8,0.69,-31.29,-32.69,0,*43
1508374957.59,62157,14.0,73866.0,0.73,-31.23,-32.75,0,*4E
1508374958.81,62158,14.0,73858.5,0.69,-31.45,-32.97,0,*46
1508374960.03,62159,14.0,73860.0,0.69,-31.45,-32.85,0,*44
1508374961.23,62160,14.0,73856.0,0.69,-31.29,-32.69,0,*46
1508374962.49,62161,14.0,73856.8,0.67,-31.51,-32.85,0,*44
1508374963.74,62162,14.0,73858.5,0.67,-31.51,-32.91,0,*42
1508374964.95,62163,14.0,73858.8,0.69,-31.39,-32.69,0,*44
1508374966.19,62164,14.0,73852.8,0.69,-31.61,-32.97,0,*4F
1508374967.39,62165,14.0,73850.0,0.69,-31.29,-32.69,0,*43
1508374968.63,62166,14.0,73854.5,0.69,-31.11,-32.63,0,*41
1508374969.86,62167,14.0,73856.3,0.69,-31.11,-32.69,0,*4A
1508374971.1,62168,14.0,73856.0,0.73,-31.39,-32.75,0,*49
1508374972.29,62169,14.0,73858.8,0.77,-31.01,-32.39,0,*4F
1508374973.53,62170,14.0,73862.0,0.73,-31.23,-32.63,0,*4C
1508374974.75,62171,14.0,73860.3,0.73,-31.39,-32.91,0,*4B
1508374975.96,62172,14.0,73856.0,0.73,-31.57,-33.03,0,*4A
1508374977.17,62173,14.0,73856.0,0.73,-31.51,-32.91,0,*47
1508374978.41,62174,14.0,73856.3,0.73,-31.57,-32.79,0,*40
1508374979.66,62175,14.0,73858.8,0.69,-31.39,-32.79,0,*42
1508374980.9,62176,14.0,73858.8,0.69,-31.57,-32.85,0,*4A
1508374982.15,62177,14.0,73858.5,0.69,-31.57,-32.85,0,*4B
1508374983.38,62178,14.0,73864.3,0.73,-31.39,-32.79,0,*44
1508374984.62,62179,14.0,73866.3,0.73,-31.51,-32.79,0,*4B
1508374985.84,62180,14.0,73866.8,0.69,-31.73,-33.03,0,*4A
1508374987.08,62181,14.0,73864.0,0.69,-31.73,-33.09,0,*41
1508374988.3,62182,14.0,73866.0,0.73,-31.79,-33.09,0,*43
1508374989.51,62183,14.0,73868.0,0.73,-31.85,-33.21,0,*4B
1508374990.75,62184,14.0,73866.8,0.73,-32.07,-33.49,0,*4B
1508374991.99,62185,14.0,73864.5,0.73,-31.95,-33.49,0,*42
1508374993.23,62186,14.0,73866.0,0.73,-31.95,-33.49,0,*41
1508374994.49,62187,14.0,73866.5,0.67,-32.19,-33.61,0,*48
1508374995.71,62188,14.0,73870.8,0.69,-32.13,-33.73,0,*40
1508374996.95,62189,14.0,73870.0,0.67,-32.01,-33.49,0,*45
1508374998.2,62190,14.0,73870.0,0.67,-31.85,-33.15,0,*4B
1508374999.41,62191,14.0,73870.3,0.67,-31.79,-33.15,0,*49
1508375000.66,62192,14.0,73866.0,0.67,-31.79,-33.09,0,*47
1508375001.9,62193,14.0,73866.8,0.67,-31.79,-33.09,0,*46
1508375003.14,62194,14.0,73866.5,0.67,-31.79,-33.09,0,*41
1508375004.38,62195,14.0,73864.0,0.67,-31.67,-33.09,0,*4F
1508375005.63,62196,14.0,73864.5,0.67,-31.79,-33.09,0,*43
1508375006.87,62197,14.0,73864.5,0.67,-31.79,-33.09,0,*42
1508375008.09,62198,14.0,73866.0,0.67,-31.79,-33.15,0,*40
1508375009.3,62199,14.0,73866.8,0.67,-31.67,-33.03,0,*49
1508375010.55,62200,14.0,73862.5,0.67,-31.61,-32.91,0,*46
1508375011.77,62201,14.0,73862.5,0.67,-31.45,-32.91,0,*41
1508375013.02,62202,14.0,73862.3,0.67,-31.33,-32.75,0,*49
1508375014.23,62203,14.0,73864.5,0.67,-31.67,-33.15,0,*4E
1508375015.47,62204,14.0,73862.5,0.67,-31.61,-33.03,0,*48
1508375016.7,62205,14.0,73862.0,0.65,-31.45,-32.85,0,*42
1508375017.89,62206,14.0,73864.0,0.65,-31.29,-32.69,0,*49
1508375019.15,62207,14.0,73862.8,0.67,-31.51,-32.85,0,*47
1508375020.4,62208,14.0,73864.3,0.67,-31.45,-32.85,0,*4D
1508375021.65,62209,14.0,73864.5,0.67,-31.51,-32.91,0,*4C
1508375022.89,62210,14.0,73864.8,0.67,-31.33,-32.85,0,*45
1508375024.11,62211,14.0,73862.8,0.67,-31.17,-32.69,0,*40
1508375025.33,62212,14.0,73860.5,0.67,-31.17,-32.69,0,*43
1508375026.54,62213,14.0,73862.3,0.67,-31.17,-32.57,0,*4F
1508375027.76,62214,14.0,73860.0,0.67,-31.29,-32.69,0,*48
1508375029.01,62215,14.0,73858.5,0.67,-31.33,-32.85,0,*40
1508375030.23,62216,14.0,73858.3,0.69,-31.23,-32.69,0,*4E
1508375031.45,62217,14.0,73858.0,0.69,-31.45,-32.85,0,*4D
1508375032.7,62218,14.0,73856.0,0.69,-31.57,-32.85,0,*41
1508375033.92,62219,14.0,73856.3,0.69,-31.45,-32.85,0,*43
1508375035.16,62220,14.0,73860.0,0.69,-31.57,-32.97,0,*49
1508375036.37,62221,14.0,73856.0,0.69,-31.29,-32.63,0,*4A
1508375037.59,62222,14.0,73856.8,0.69,-31.05,-32.45,0,*43
1508375038.84,62223,14.0,73858.0,0.67,-31.45,-32.75,0,*4B
1508375040.08,62224,14.0,73860.3,0.69,-31.61,-32.85,0,*4B
1508375041.31,62225,14.0,73858.3,0.69,-32.01,-33.43,0,*44
1508375042.53,62226,14.0,73860.8,0.69,-32.13,-33.43,0,*44
1508375043.79,62227,14.0,73860.0,0.67,-32.19,-33.61,0,*41
1508375045.03,62228,14.0,73862.0,0.69,-32.07,-33.49,0,*45
1508375046.3,62229,14.0,73860.8,0.67,-31.95,-33.31,0,*4D
1508375047.52,62230,14.0,73860.5,0.67,-31.79,-33.03,0,*46
1508375048.74,62231,14.0,73862.8,0.67,-31.67,-32.91,0,*42
1508375049.95,62232,14.0,73860.3,0.65,-31.61,-33.03,0,*4F
1508375051.2,62233,14.0,73858.0,0.67,-31.61,-32.91,0,*46
1508375052.45,62234,14.0,73862.0,0.67,-31.45,-32.75,0,*4D
1508375053.7,62235,14.0,73856.8,0.67,-31.45,-32.85,0,*43
1508375054.97,62236,14.0,73858.3,0.67,-31.51,-32.85,0,*45
1508375056.24,62237,14.0,73858.5,0.67,-31.51,-32.85,0,*44
1508375057.49,62238,14.0,73862.8,0.67,-31.45,-32.85,0,*4E
1508375058.74,62239,14.0,73860.0,0.67,-31.45,-32.75,0,*40
1508375059.99,62240,14.0,73856.5,0.67,-31.29,-32.75,0,*44
1508375061.25,62241,14.0,73858.3,0.67,-31.51,-32.85,0,*45
1508375062.5,62242,14.0,73866.0,0.67,-31.45,-32.85,0,*43
1508375063.75,62243,14.0,73860.8,0.67,-31.45,-32.85,0,*42
1508375065.02,62244,14.0,73864.8,0.67,-31.51,-32.85,0,*40
1508375066.26,62245,14.0,73862.5,0.67,-31.51,-32.91,0,*44
1508375067.48,62246,14.0,73866.3,0.67,-31.67,-32.91,0,*42
1508375068.69,62247,14.0,73870.8,0.65,-31.79,-33.09,0,*4E
1508375069.91,62248,14.0,73870.0,0.65,-32.01,-33.31,0,*46
1508375071.1,62249,14.0,73868.0,0.65,-31.67,-33.03,0,*45
1508375072.36,62250,14.0,73874.0,0.63,-31.73,-33.09,0,*44
1508375073.61,62251,14.0,73868.5,0.65,-31.95,-33.31,0,*40
1508375074.83,62252,14.0,73874.8,0.65,-32.01,-33.31,0,*4D
1508375076.07,62253,14.0,73870.3,0.63,-31.85,-33.15,0,*43
1508375077.28,62254,14.0,73868.3,0.63,-31.67,-32.91,0,*45
1508375078.5,62255,14.0,73876.3,0.65,-31.61,-32.91,0,*44
1508375079.76,62256,14.0,73872.3,0.63,-31.57,-32.97,0,*42
1508375081.02,62257,14.0,73868.3,0.63,-31.73,-32.97,0,*45
1508375082.24,62258,14.0,73860.5,0.65,-31.51,-32.91,0,*4A
1508375083.43,62259,14.0,73862.8,0.65,-31.45,-32.91,0,*4E
1508375084.64,62260,14.0,73862.3,0.63,-31.67,-33.03,0,*48
1508375085.9,62261,14.0,73866.5,0.63,-31.73,-32.97,0,*40
1508375087.09,62262,14.0,73868.0,0.65,-31.67,-32.91,0,*46
1508375088.36,62263,14.0,73874.8,0.63,-31.73,-32.97,0,*42
1508375089.62,62264,14.0,73870.5,0.63,-31.85,-33.09,0,*4A
1508375090.89,62265,14.0,73878.3,0.63,-32.07,-33.49,0,*46
1508375092.13,62266,14.0,73872.0,0.63,-32.13,-33.49,0,*40
1508375093.37,62267,14.0,73870.8,0.63,-31.91,-33.21,0,*46
1508375094.56,62268,14.0,73872.5,0.61,-32.01,-33.21,0,*41
1508375095.75,62269,14.0,73878.3,0.61,-32.23,-33.37,0,*47
1508375096.95,62270,14.0,73874.3,0.61,-32.01,-33.21,0,*48
1508375098.16,62271,14.0,73878.3,0.61,-31.33,-32.63,0,*4C
1508375099.41,62272,14.0,73878.0,0.59,-31.11,-32.51,0,*45
1508375100.68,62273,14.0,73874.0,0.59,-31.23,-32.63,0,*44
1508375101.89,62274,14.0,73874.3,0.59,-31.05,-32.23,0,*43
1508375103.15,62275,14.0,73878.3,0.59,-30.73,-31.91,0,*48
1508375104.41,62276,14.0,73868.8,0.63,-30.51,-31.73,0,*4E
1508375105.64,62277,14.0,73868.3,0.65,-30.73,-31.85,0,*40
1508375106.85,62278,14.0,73868.0,0.65,-30.55,-31.79,0,*48
1508375108.06,62279,14.0,73864.5,0.65,-30.23,-31.61,0,*41
1508375109.3,62280,14.0,73864.0,0.67,-30.27,-31.61,0,*41
1508375110.52,62281,14.0,73866.8,0.69,-30.23,-31.61,0,*4A
1508375111.73,62282,14.0,73862.5,0.67,-30.27,-31.67,0,*45
1508375112.96,62283,14.0,73866.0,0.67,-30.55,-31.67,0,*41
1508375114.18,62284,14.0,73864.5,0.69,-30.33,-31.61,0,*4E
1508375115.39,62285,14.0,73868.0,0.69,-30.33,-31.61,0,*4F
1508375116.62,62286,14.0,73864.8,0.69,-30.39,-31.61,0,*46
1508375117.83,62287,14.0,73866.5,0.73,-30.27,-31.57,0,*46
1508375119.07,62288,14.0,73866.0,0.73,-30.51,-31.91,0,*42
1508375120.29,62289,14.0,73866.5,0.77,-30.67,-31.85,0,*47
1508375121.49,62290,14.0,73864.3,0.77,-30.67,-32.01,0,*40
1508375122.76,62291,14.0,73870.3,0.79,-30.55,-31.85,0,*41
1508375124.01,62292,14.0,73872.0,0.79,-30.61,-31.79,0,*46
1508375125.22,62293,14.0,73866.5,0.73,-30.67,-31.85,0,*48
1508375126.45,62294,14.0,73866.3,0.79,-30.67,-32.01,0,*4A
1508375127.67,62295,14.0,73866.5,0.81,-30.55,-31.79,0,*41
1508375128.93,62296,14.0,73860.8,0.79,-30.55,-31.91,0,*43
1508375130.18,62297,14.0,73860.5,0.81,-30.89,-32.29,0,*44
1508375131.41,62298,14.0,73854.3,0.79,-31.17,-32.51,0,*45
1508375132.64,62299,14.0,73856.3,0.79,-31.17,-32.69,0,*4F
1508375133.9,62300,14.0,73848.0,0.79,-31.11,-32.39,0,*4D
1508375135.14,62301,14.0,73836.3,0.79,-31.17,-32.51,0,*44
1508375136.36,62302,14.0,73838.5,0.79,-31.33,-32.69,0,*4A
1508375137.6,62303,14.0,73840.5,0.81,-31.39,-32.69,0,*46
1508375138.86,62304,14.0,73846.3,0.79,-31.45,-32.75,0,*40
1508375140.11,62305,14.0,73850.5,0.77,-31.61,-32.75,0,*49
1508375141.37,62306,14.0,73856.0,0.77,-31.61,-32.75,0,*4A
1508375142.61,62307,14.0,73856.0,0.77,-31.45,-32.75,0,*4D
1508375143.81,62308,14.0,73858.8,0.77,-31.17,-32.51,0,*43
1508375145.02,62309,14.0,73860.0,0.77,-31.45,-32.69,0,*4E
1508375146.25,62310,14.0,73862.8,0.77,-31.45,-32.75,0,*4B
1508375147.49,62311,14.0,73866.8,0.77,-31.45,-32.75,0,*4A
1508375148.72,62312,14.0,73864.3,0.77,-31.33,-32.75,0,*48
1508375149.93,62313,14.0,73864.0,0.73,-31.67,-32.85,0,*43
1508375151.15,62314,14.0,73864.0,0.73,-31.73,-32.91,0,*44
1508375152.35,62315,14.0,73864.8,0.77,-31.79,-32.91,0,*4B
1508375153.59,62316,14.0,73864.3,0.73,-31.57,-32.79,0,*46
1508375154.8,62317,14.0,73866.0,0.73,-31.67,-32.79,0,*44
1508375156.02,62318,14.0,73864.8,0.73,-31.67,-32.79,0,*4B
1508375157.26,62319,14.0,73862.3,0.73,-31.57,-32.79,0,*49
1508375158.44,62320,14.0,73866.5,0.73,-31.17,-32.23,0,*48
1508375159.63,62321,14.0,73866.5,0.73,-31.17,-32.51,0,*4C
1508375160.82,62322,14.0,73866.5,0.73,-31.33,-32.57,0,*4F
1508375162.0,62323,14.0,73866.8,0.73,-31.33,-32.57,0,*4E
1508375163.23,62324,14.0,73870.5,0.73,-31.51,-32.63,0,*4A
1508375164.47,62325,14.0,73868.3,0.73,-31.73,-32.79,0,*40
1508375165.66,62326,14.0,73864.3,0.73,-31.67,-32.91,0,*40
1508375166.9,62327,14.0,73864.3,0.73,-31.39,-32.75,0,*40
1508375168.14,62328,14.0,73868.3,0.73,-31.57,-32.79,0,*4B
1508375169.4,62329,14.0,73868.5,0.77,-31.61,-32.75,0,*47
1508375170.62,62330,14.0,73870.5,0.69,-31.57,-32.69,0,*48
1508375171.84,62331,14.0,73876.3,0.69,-31.61,-32.69,0,*4C
1508375173.08,62332,14.0,73872.0,0.73,-31.73,-32.79,0,*46
1508375174.3,62333,14.0,73872.5,0.69,-31.05,-32.45,0,*42
1508375175.5,62334,14.0,73870.5,0.69,-31.45,-32.69,0,*4F
1508375176.71,62335,14.0,73868.8,0.69,-31.79,-32.85,0,*43
1508375177.93,62336,14.0,73870.3,0.69,-31.39,-32.69,0,*46
1508375179.18,62337,14.0,73864.5,0.69,-31.23,-32.63,0,*46
1508375180.43,62338,14.0,73864.8,0.67,-31.45,-32.75,0,*40
1508375181.67,62339,14.0,73860.0,0.69,-31.61,-32.79,0,*45
1508375182.92,62340,14.0,73864.5,0.69,-31.73,-32.79,0,*48
1508375184.16,62341,14.0,73862.3,0.69,-31.61,-32.85,0,*49
1508375185.38,62342,14.0,73864.0,0.73,-31.73,-32.91,0,*47
1508375186.59,62343,14.0,73864.0,0.69,-31.79,-32.97,0,*41
1508375187.82,62344,14.0,73870.0,0.69,-32.01,-33.27,0,*40
1508375189.04,62345,14.0,73860.5,0.67,-32.01,-33.15,0,*4E
1508375190.28,62346,14.0,73866.3,0.69,-31.57,-32.85,0,*4B
1508375191.5,62347,14.0,73864.5,0.67,-31.79,-32.91,0,*4D
1508375192.75,62348,14.0,73870.0,0.69,-31.57,-32.79,0,*46
1508375193.97,62349,14.0,73864.3,0.69,-31.11,-32.35,0,*4D
1508375195.22,62350,14.0,73866.8,0.67,-31.61,-32.69,0,*45
1508375196.44,62351,14.0,73864.8,0.69,-31.23,-32.51,0,*47
1508375197.63,62352,14.0,73864.0,0.73,-31.17,-32.39,0,*46
1508375198.87,62353,14.0,73860.0,0.69,-31.11,-32.29,0,*4B
1508375200.11,62354,14.0,73864.5,0.69,-30.89,-32.19,0,*4F
1508375201.36,62355,14.0,73856.0,0.69,-30.89,-31.95,0,*49
1508375202.55,62356,14.0,73858.5,0.69,-30.67,-31.79,0,*48
1508375203.79,62357,14.0,73854.8,0.73,-30.89,-31.95,0,*40
1508375205.0,62358,14.0,73858.8,0.73,-30.83,-31.85,0,*44
1508375206.22,62359,14.0,73858.8,0.77,-30.61,-31.67,0,*41
1508375207.44,62360,14.0,73854.8,0.77,-30.61,-31.79,0,*44
1508375208.64,62361,14.0,73852.8,0.77,-30.83,-32.01,0,*45
1508375209.84,62362,14.0,73858.8,0.77,-31.17,-32.35,0,*4D
1508375211.06,62363,14.0,73860.3,0.77,-31.51,-32.69,0,*47
1508375212.3,62364,14.0,73866.8,0.73,-31.51,-32.63,0,*4E
1508375213.51,62365,14.0,73862.0,0.77,-31.45,-32.69,0,*44
1508375214.7,62366,14.0,73860.3,0.77,-31.29,-32.57,0,*40
1508375215.93,62367,14.0,73860.5,0.77,-31.51,-32.69,0,*43
1508375217.16,62368,14.0,73866.0,0.77,-31.67,-32.75,0,*44
1508375218.39,62369,14.0,73862.3,0.73,-31.85,-32.97,0,*41
1508375219.61,62370,14.0,73866.8,0.73,-31.73,-32.91,0,*46
1508375220.83,62371,14.0,73866.5,0.73,-31.85,-32.91,0,*4E
1508375222.07,62372,14.0,73866.0,0.73,-31.57,-32.75,0,*48
1508375223.32,62373,14.0,73864.5,0.73,-31.57,-32.75,0,*49
1508375224.53,62374,14.0,73864.3,0.73,-31.67,-32.79,0,*41
1508375225.74,62375,14.0,73868.0,0.73,-31.91,-32.91,0,*4F
1508375226.97,62376,14.0,73866.5,0.73,-31.91,-32.97,0,*4A
1508375228.21,62377,14.0,73866.5,0.73,-31.85,-32.97,0,*4E
1508375229.43,62378,14.0,73866.5,0.69,-31.91,-33.03,0,*43
1508375230.67,62379,14.0,73866.3,0.67,-32.01,-33.09,0,*4C
1508375231.9,62380,14.0,73860.8,0.69,-31.61,-32.69,0,*46
1508375233.12,62381,14.0,73864.8,0.69,-31.79,-32.85,0,*4C
1508375234.33,62382,14.0,73864.5,0.69,-31.95,-33.03,0,*42
1508375235.58,62383,14.0,73864.0,0.67,-31.95,-33.03,0,*4D
1508375236.82,62384,14.0,73864.3,0.69,-31.73,-32.79,0,*40
1508375238.05,62385,14.0,73870.0,0.67,-32.01,-33.15,0,*42
1508375239.26,62386,14.0,73870.8,0.69,-32.13,-33.27,0,*4D
1508375240.54,62387,14.0,73874.0,0.67,-32.19,-33.43,0,*4A
1508375241.78,62388,14.0,73868.8,0.67,-32.01,-33.09,0,*42
1508375243.05,62389,14.0,73874.0,0.67,-31.95,-33.09,0,*4D
1508375244.27,62390,14.0,73872.3,0.65,-32.19,-33.15,0,*4D
1508375245.48,62391,14.0,73872.5,0.65,-31.95,-33.03,0,*4C
1508375246.7,62392,14.0,73870.3,0.65,-31.95,-32.91,0,*45
1508375247.94,62393,14.0,73870.5,0.63,-31.67,-32.75,0,*45
1508375249.16,62394,14.0,73870.8,0.65,-31.67,-32.75,0,*44
1508375250.39,62395,14.0,73868.8,0.63,-31.51,-32.57,0,*46
1508375251.63,62396,14.0,73874.0,0.65,-31.61,-32.85,0,*4F
1508375252.85,62397,14.0,73876.3,0.65,-31.79,-32.85,0,*47
1508375254.07,62398,14.0,73874.0,0.65,-31.79,-32.75,0,*47
1508375255.31,62399,14.0,73874.8,0.63,-31.73,-32.91,0,*40
1508375256.58,62400,14.0,73872.3,0.63,-31.73,-32.79,0,*41
1508375257.83,62401,14.0,73872.3,0.65,-31.85,-32.85,0,*4C
1508375259.02,62402,14.0,73872.8,0.65,-32.01,-32.91,0,*45
1508375260.27,62403,14.0,73874.5,0.63,-32.01,-33.09,0,*42
1508375261.53,62404,14.0,73874.3,0.63,-31.85,-32.97,0,*4C
1508375262.77,62405,14.0,73872.3,0.63,-32.01,-32.97,0,*42
1508375263.99,62406,14.0,73874.8,0.65,-31.95,-32.91,0,*4F
1508375265.26,62407,14.0,73878.3,0.63,-31.73,-32.79,0,*46
1508375266.52,62408,14.0,73876.5,0.63,-32.07,-32.97,0,*49
1508375267.76,62409,14.0,73878.0,0.61,-31.91,-32.97,0,*46
1508375268.98,62410,14.0,73878.0,0.61,-32.01,-32.97,0,*44
1508375270.22,62411,14.0,73878.8,0.63,-32.01,-32.97,0,*47
1508375271.46,62412,14.0,73876.5,0.61,-31.91,-32.97,0,*4C
1508375272.7,62413,14.0,73874.5,0.59,-32.19,-33.15,0,*4E
1508375273.94,62414,14.0,73874.3,0.59,-32.19,-33.21,0,*4E
1508375275.12,62415,14.0,73874.3,0.61,-32.13,-33.03,0,*4E
1508375276.36,62416,14.0,73876.0,0.59,-32.13,-32.97,0,*4A
1508375277.6,62417,14.0,73874.3,0.61,-31.91,-32.97,0,*49
1508375278.84,62418,14.0,73874.3,0.59,-31.91,-33.03,0,*41
1508375280.1,62419,14.0,73872.0,0.59,-31.91,-32.85,0,*4F
1508375281.35,62420,14.0,73872.3,0.61,-31.57,-32.63,0,*4C
1508375282.62,62421,14.0,73868.5,0.59,-31.73,-32.79,0,*4B
1508375283.86,62422,14.0,73870.5,0.61,-31.85,-32.79,0,*4A
1508375285.13,62423,14.0,73864.5,0.59,-31.57,-32.79,0,*4F
1508375286.37,62424,14.0,73866.5,0.59,-31.79,-32.79,0,*44
1508375287.64,62425,14.0,73860.5,0.59,-31.73,-32.79,0,*4F
1508375288.91,62426,14.0,73860.5,0.59,-31.73,-32.85,0,*4F
1508375290.16,62427,14.0,73860.8,0.59,-31.61,-32.69,0,*4F
1508375291.4,62428,14.0,73862.0,0.59,-31.79,-32.85,0,*4B
1508375292.65,62429,14.0,73858.8,0.61,-31.85,-32.79,0,*41
1508375293.89,62430,14.0,73858.0,0.61,-31.73,-32.79,0,*40
1508375295.11,62431,14.0,73858.5,0.61,-31.91,-32.91,0,*4B
1508375296.33,62432,14.0,73856.8,0.59,-32.13,-33.03,0,*40
1508375297.59,62433,14.0,73862.0,0.59,-32.29,-33.27,0,*4E
1508375298.85,62434,14.0,73860.3,0.59,-32.29,-33.43,0,*4B
1508375300.09,62435,14.0,73860.5,0.55,-32.35,-33.27,0,*49
1508375301.3,62436,14.0,73864.8,0.57,-32.35,-33.31,0,*4F
1508375302.51,62437,14.0,73864.5,0.57,-32.23,-33.27,0,*4E
1508375303.73,62438,14.0,73862.8,0.55,-32.01,-33.03,0,*45
1508375304.94,62439,14.0,73860.3,0.57,-32.19,-33.21,0,*4F
1508375306.18,62440,14.0,73862.8,0.55,-32.23,-33.27,0,*4C
1508375307.42,62441,14.0,73866.5,0.55,-32.35,-33.27,0,*4A
1508375308.62,62442,13.94,73862.3,0.57,-32.35,-33.31,0,*4C
1508375309.86,62443,14.0,73866.0,0.55,-32.35,-33.31,0,*4F